Time,TemperatureF,DewpointF,PressureIn,WindDirection,WindDirectionDegrees,WindSpeedMPH,WindSpeedGustMPH,Humidity,HourlyPrecipIn,Conditions,Clouds,dailyrainin,SoftwareType,DateUTC
2013-05-21 00:00:00,55.1,31.1,24.16,North,0,0.0,-999.0,40,0.00,,,0.00,,2013-05-21 07:00:00,
2013-05-21 01:00:00,56.2,33.8,24.16,North,0,0.0,-999.0,43,0.00,,,0.00,,2013-05-21 08:00:00,
2013-05-21 02:00:00,55.6,30.2,24.14,North,0,0.0,-999.0,38,0.00,,,0.00,,2013-05-21 09:00:00,
2013-05-21 03:00:00,54.9,32.7,24.12,North,0,0.0,-999.0,43,0.00,,,0.00,,2013-05-21 10:00:00,
2013-05-21 04:00:00,53.8,31.1,24.11,North,0,0.0,-999.0,42,0.00,,,0.00,,2013-05-21 11:00:00,
2013-05-21 05:00:00,54.0,24.7,24.12,North,0,0.0,-999.0,32,0.00,,,0.00,,2013-05-21 12:00:00,
2013-05-21 06:00:00,52.4,28.7,24.12,North,0,0.0,-999.0,40,0.00,,,0.00,,2013-05-21 13:00:00,
2013-05-21 07:05:00,52.4,31.5,24.12,North,0,0.0,-999.0,45,0.00,,,0.00,,2013-05-21 14:05:00,
2013-05-21 08:05:00,57.6,29.3,0.00,North,0,0.0,-999.0,34,0.00,,,0.00,,2013-05-21 15:05:00,
2013-05-21 09:05:00,68.0,31.5,0.00,North,0,0.0,-999.0,26,0.00,,,0.00,,2013-05-21 16:05:00,
2013-05-21 10:05:00,67.7,36.6,0.00,North,0,0.0,-999.0,32,0.00,,,0.00,,2013-05-21 17:05:00,
2013-05-21 11:05:00,66.4,34.2,0.00,North,0,0.0,-999.0,30,0.00,,,0.00,,2013-05-21 18:05:00,
2013-05-21 12:09:00,67.5,34.0,0.00,North,0,0.0,-999.0,29,0.00,,,0.00,,2013-05-21 19:09:00,
2013-05-21 13:05:00,68.9,35.3,0.00,North,0,0.0,-999.0,29,0.00,,,0.00,,2013-05-21 20:05:00,
2013-05-21 14:05:00,68.4,28.8,0.00,North,0,0.0,-999.0,23,0.00,,,0.00,,2013-05-21 21:05:00,
2013-05-21 15:05:00,68.8,30.2,0.00,North,0,0.0,-999.0,24,0.00,,,0.00,,2013-05-21 22:05:00,
2013-05-21 16:05:00,67.7,31.2,0.00,North,0,0.0,-999.0,26,0.00,,,0.00,,2013-05-21 23:05:00,
2013-05-21 17:05:00,65.9,33.7,0.00,North,0,0.0,-999.0,30,0.00,,,0.00,,2013-05-22 00:05:00,
2013-05-21 18:00:00,63.4,28.5,24.05,North,0,0.0,-999.0,27,0.00,,,0.00,,2013-05-22 01:00:00,
2013-05-21 19:00:00,61.0,24.6,24.04,North,0,0.0,-999.0,25,0.00,,,0.00,,2013-05-22 02:00:00,
2013-05-21 20:00:00,59.2,20.1,24.03,North,0,0.0,-999.0,22,0.00,,,0.00,,2013-05-22 03:00:00,
2013-05-21 21:00:00,58.1,22.1,24.03,North,0,0.0,-999.0,25,0.00,,,0.00,,2013-05-22 04:00:00,
2013-05-21 22:00:00,0.0,0.0,24.03,North,0,0.0,-999.0,0,0.00,,,0.00,,2013-05-22 05:00:00,
2013-05-21 23:00:00,55.8,29.7,24.02,North,0,0.0,-999.0,37,0.00,,,0.00,,2013-05-22 06:00:00,